Location: *
(49.8292°S, 175.6452°W)
Time: 20:10:22
(UTC+00:00)

Cosmos 2360 Rocket - Pass Details

Date: 15 October 2024
Orbit: 834 x 843 km, 71.0° (Epoch: 05 November)

Event Time Altitude Azimuth Distance (km) Brightness Sun altitude
Exits shadow 10:01:49 19° 113° (ESE) 1,918 4.0 -28.4°
Drops below altitude 10° 10:04:01 10° 131° (SE) 2,497 4.8 -28.6°
Sets 10:06:51 0° 143° (SE) 3,440 5.7 -28.8°
